User: anonymous   Login
Location: Columbia
(38.9520°N, 92.3340°W)
Time: 17:51:55
(UTC-06:00)
Language:

CZ-2C R/B - Orbit

View from above orbital plane
View from above orbital plane
View from above satellite
View from above satellite

Ground track
Ground track

The orbit data is extracted from the following two-line orbital elements,

1 28480U 04046B   17322.86743983 +.00000026 +00000-0 +24829-4 0  9996
2 28480 098.1943 049.0868 0143006 127.8511 343.9076 14.25656906676254
Epoch (UTC): 18 November 2017 20:49:06
Eccentricity: 0.0143006
inclination: 98.1943°
perigee height: 703 km
apogee height: 909 km
right ascension of ascending node: 49.0868°
argument of perigee: 127.8511°
revolutions per day: 14.25656906
mean anomaly at epoch: 343.9076°
orbit number at epoch: 67625

The dashed part of the orbit path shows where the satellite is in the earth's shadow,  

DLR